SITRO-AIS 25

Last updated on Wed Nov 05 2025 00:03:48 GMT+0000 (Coordinated Universal Time)

1 59066U 24039R 25308.62328616 .00004112 00000+0 33661-3 0 9995 2 59066 95.3927 80.9719 0152148 32.6705 328.3818 14.90911883 91233
UTC large
Height (km)
Speed (km/s)
/
Latitude / Longitude
Inclination (degrees)
Orbital Period (minutes)
Azimuth
Elevation
Range (km)
Doppler Factor

Next 0 passes for location: London (51.5072 / 0.1276)

Sorry there are no passes over London.